Location: Bon Acre
(42.6442°N, 73.5758°W)
Time: 02:40:32
(UTC+00:00)

SL-08 R/B - Pass Details

Date: 20 March 2026
Orbit: 946 x 992 km, 83.0° (Epoch: 13 April)

Event Time Altitude Azimuth Distance (km) Brightness Sun altitude
Rises 02:28:44 0° 224° (SW) 3,611 7.5 -35.4°
Reaches altitude 10° 02:31:45 10° 238° (WSW) 2,666 6.9 -35.8°
Maximum altitude 02:36:31 24° 290° (WNW) 1,869 6.4 -36.5°
Drops below altitude 10° 02:41:20 10° 342° (NNW) 2,675 7.4 -37.1°
Sets 02:44:23 0° 357° (N) 3,627 8.1 -37.5°
